GPS BIIF-10 (40730 NORAD) Tracking and Keplerian Element Data

This shows tracking and keplerian element data for the satellite.

Feedback or suggestion? Click here.




ElementValue
Catalog40730
NameGPS BIIF-10
Epoch Orbit6515
Epoch Day159.32868307
Epoch Year2024
RAAN297.4568
Inclination54.6056
Eccentricity0.0093953
Argument of Perigee19.6511
Mean Anonmoly340.687
Mean Motion2.00567511
Decay Rate-6.9E-07
L11 40730U 15033A 24159.32868307 -.00000069 00000+0 00000+0 0 9998
L22 40730 54.6056 297.4568 0093953 19.6511 340.6870 2.00567511 65157



Live tracking and technical data element details for GPS BIIF-10 (NORAD 40730). GPS BIIF-10 can be tracked NOW for your location showing map with azimuth and elevation plus other details from your city location.







IsCatalogInMostPopularTable: catalog: 40730, numindb: 968
Update: records affected: 1



GetName: 40730 GPS BIIF-10

Hit Count: updated at: Tue, 17 Sep 2024 10:49:48 GMT